sat.trackr.live / text

‹ back to catalog

STARLINK-34280

NORAD 64594 · 2025-137A

PAYLOAD ACTIVE UNKNOWN

§ Identity

Operator
Country
US
Launch date
2025-06-25
Launch site
AFETR
Launch vehicle
Mass (kg)
RCS (m²)

Purposes: comms

External: N2YO · Heavens-Above · Gunter

§ Orbital elements

Epoch: 2026-05-24T18:31:55.776576Z

Period
94.11 min
Inclination
53.1590°
Eccentricity
0.0000973
Mean motion
15.30196611 rev/d
Perigee alt
474.6 km
Apogee alt
475.9 km
Semi-major
6,853.4 km
B*
7.3077e-4
RAAN
341.8322°
Arg perigee
96.1188°
Mean anomaly
263.9923°
Rev number
5,238

§ Raw data

STARLINK-342801 64594U 25137A   26144.77217334  .00021344  00000+0  73077-3 0  99972 64594  53.1590 341.8322 0000973  96.1188 263.9923 15.30196611 52383

JSON: /api/v1/satellites/64594 · /tle

For live sub-satellite position, see the globe view (requires WebGL).

§ Visibility from observer

Set your observer location to see the next 7 days of passes ≥ 10°. The values pass through the URL so the page stays shareable.

No JS? Fill the form by hand. The geolocation button needs JavaScript.